TimeEST,TemperatureF,Dew PointF,Humidity,Sea Level PressureIn,VisibilityMPH,Wind Direction,Wind SpeedMPH,Gust SpeedMPH,PrecipitationIn,Events,Conditions,WindDirDegrees,DateUTC
12:15 AM,35.6,24.8,65,29.97,10.0,SW,18.4,25.3,N/A,,Clear,230,2013-01-19 05:15:00
12:35 AM,35.6,24.8,65,29.96,10.0,SW,18.4,25.3,N/A,,Clear,230,2013-01-19 05:35:00
12:55 AM,35.6,24.8,65,29.96,10.0,SW,17.3,26.5,N/A,,Clear,230,2013-01-19 05:55:00
1:15 AM,35.6,24.8,65,29.96,10.0,SW,18.4,27.6,N/A,,Clear,230,2013-01-19 06:15:00
1:35 AM,35.6,24.8,65,29.95,10.0,SW,19.6,25.3,N/A,,Clear,230,2013-01-19 06:35:00
1:55 AM,37.4,24.8,60,29.95,10.0,SW,20.7,25.3,N/A,,Clear,230,2013-01-19 06:55:00
2:14 AM,37.4,24.8,60,29.95,10.0,SW,19.6,26.5,N/A,,Clear,230,2013-01-19 07:14:00
2:35 AM,37.4,24.8,60,29.95,10.0,WSW,17.3,26.5,N/A,,Clear,240,2013-01-19 07:35:00
2:55 AM,37.4,24.8,60,29.96,10.0,SW,18.4,31.1,N/A,,Clear,230,2013-01-19 07:55:00
3:15 AM,37.4,26.6,65,29.95,10.0,SW,19.6,27.6,N/A,,Clear,230,2013-01-19 08:15:00
3:35 AM,37.4,26.6,65,29.95,10.0,SW,20.7,26.5,N/A,,Clear,230,2013-01-19 08:35:00
3:55 AM,37.4,26.6,65,29.95,10.0,SW,17.3,25.3,N/A,,Clear,230,2013-01-19 08:55:00
4:14 AM,37.4,26.6,65,29.95,10.0,SW,19.6,23.0,N/A,,Clear,230,2013-01-19 09:14:00
4:35 AM,37.4,26.6,65,29.95,10.0,SW,17.3,26.5,N/A,,Clear,230,2013-01-19 09:35:00
4:54 AM,35.6,26.6,70,29.94,10.0,SW,17.3,24.2,N/A,,Clear,230,2013-01-19 09:54:00
5:15 AM,35.6,26.6,70,29.94,10.0,SW,13.8,-,N/A,,Clear,230,2013-01-19 10:15:00
5:35 AM,35.6,26.6,70,29.94,10.0,SW,15.0,20.7,N/A,,Clear,230,2013-01-19 10:35:00
5:54 AM,35.6,26.6,70,29.94,10.0,SW,13.8,-,N/A,,Clear,230,2013-01-19 10:54:00
6:15 AM,35.6,26.6,70,29.94,10.0,SW,15.0,-,N/A,,Clear,230,2013-01-19 11:15:00
6:35 AM,35.6,26.6,70,29.94,10.0,SW,16.1,21.9,N/A,,Clear,220,2013-01-19 11:35:00
6:55 AM,35.6,26.6,70,29.94,10.0,SW,15.0,-,N/A,,Clear,230,2013-01-19 11:55:00
7:15 AM,35.6,26.6,70,29.94,10.0,SW,16.1,19.6,N/A,,Clear,230,2013-01-19 12:15:00
7:35 AM,35.6,26.6,70,29.94,10.0,SW,13.8,18.4,N/A,,Clear,230,2013-01-19 12:35:00
7:55 AM,35.6,26.6,70,29.94,10.0,SW,11.5,-,N/A,,Clear,230,2013-01-19 12:55:00
8:15 AM,35.6,26.6,70,29.94,10.0,SW,11.5,-,N/A,,Clear,230,2013-01-19 13:15:00
8:35 AM,35.6,26.6,70,29.94,10.0,SW,11.5,-,N/A,,Clear,230,2013-01-19 13:35:00
8:55 AM,35.6,26.6,70,29.94,10.0,SW,11.5,-,N/A,,Clear,220,2013-01-19 13:55:00
9:15 AM,37.4,28.4,70,29.94,10.0,SW,12.7,-,N/A,,Clear,220,2013-01-19 14:15:00
9:34 AM,37.4,28.4,70,29.95,10.0,SW,19.6,-,N/A,,Clear,220,2013-01-19 14:34:00
9:55 AM,39.2,28.4,65,29.94,10.0,SW,15.0,-,N/A,,Clear,220,2013-01-19 14:55:00
10:15 AM,39.2,28.4,65,29.94,10.0,SW,15.0,26.5,N/A,,Clear,230,2013-01-19 15:15:00
10:35 AM,41.0,28.4,61,29.94,10.0,SW,19.6,-,N/A,,Clear,230,2013-01-19 15:35:00
10:55 AM,42.8,28.4,57,29.93,10.0,SW,18.4,27.6,N/A,,Clear,230,2013-01-19 15:55:00
11:14 AM,42.8,28.4,57,29.92,10.0,SW,19.6,27.6,N/A,,Clear,230,2013-01-19 16:14:00
11:35 AM,42.8,28.4,57,29.90,10.0,SW,19.6,26.5,N/A,,Clear,230,2013-01-19 16:35:00
11:55 AM,44.6,30.2,57,29.89,10.0,SW,20.7,27.6,N/A,,Clear,220,2013-01-19 16:55:00
12:14 PM,44.6,30.2,57,29.87,10.0,SW,23.0,29.9,N/A,,Clear,230,2013-01-19 17:14:00
12:35 PM,42.8,30.2,61,29.85,10.0,SW,16.1,28.8,N/A,,Clear,230,2013-01-19 17:35:00
12:54 PM,42.8,30.2,61,29.84,10.0,SW,17.3,-,N/A,,Clear,230,2013-01-19 17:54:00
1:15 PM,44.6,30.2,57,29.83,10.0,SW,20.7,24.2,N/A,,Clear,230,2013-01-19 18:15:00
1:35 PM,46.4,30.2,53,29.81,10.0,SW,18.4,27.6,N/A,,Clear,230,2013-01-19 18:35:00
1:55 PM,46.4,30.2,53,29.80,10.0,SW,19.6,26.5,N/A,,Clear,230,2013-01-19 18:55:00
2:15 PM,46.4,32.0,57,29.79,10.0,SW,21.9,27.6,N/A,,Clear,230,2013-01-19 19:15:00
2:34 PM,46.4,32.0,57,29.78,10.0,SW,20.7,28.8,N/A,,Clear,230,2013-01-19 19:34:00
2:55 PM,44.6,32.0,61,29.77,10.0,SW,25.3,29.9,N/A,,Clear,220,2013-01-19 19:55:00
3:14 PM,44.6,32.0,61,29.76,10.0,SW,19.6,27.6,N/A,,Clear,230,2013-01-19 20:14:00
3:35 PM,44.6,32.0,61,29.76,10.0,SW,18.4,26.5,N/A,,Clear,230,2013-01-19 20:35:00
3:55 PM,44.6,32.0,61,29.76,10.0,SW,21.9,27.6,N/A,,Clear,230,2013-01-19 20:55:00
4:14 PM,44.6,32.0,61,29.77,10.0,WSW,15.0,-,N/A,,Clear,240,2013-01-19 21:14:00
4:35 PM,44.6,32.0,61,29.77,10.0,SW,18.4,23.0,N/A,,Scattered Clouds,220,2013-01-19 21:35:00
4:54 PM,44.6,32.0,61,29.76,10.0,SW,15.0,-,N/A,,Scattered Clouds,220,2013-01-19 21:54:00
5:15 PM,42.8,32.0,66,29.74,10.0,SW,12.7,-,N/A,,Clear,220,2013-01-19 22:15:00
5:35 PM,42.8,32.0,66,29.74,10.0,SW,18.4,24.2,N/A,,Scattered Clouds,220,2013-01-19 22:35:00
5:55 PM,42.8,32.0,66,29.74,10.0,SW,18.4,-,N/A,,Scattered Clouds,220,2013-01-19 22:55:00
6:14 PM,42.8,33.8,70,29.74,10.0,SW,17.3,23.0,N/A,,Scattered Clouds,230,2013-01-19 23:14:00
6:35 PM,42.8,33.8,70,29.74,10.0,SW,17.3,23.0,N/A,,Mostly Cloudy,230,2013-01-19 23:35:00
6:55 PM,42.8,33.8,70,29.73,10.0,SW,16.1,26.5,N/A,,Scattered Clouds,230,2013-01-19 23:55:00
7:14 PM,42.8,33.8,70,29.73,10.0,SW,16.1,-,N/A,,Clear,230,2013-01-20 00:14:00
7:35 PM,41.0,33.8,76,29.72,10.0,SW,15.0,23.0,N/A,,Clear,230,2013-01-20 00:35:00
7:55 PM,41.0,33.8,76,29.72,10.0,SW,18.4,24.2,N/A,,Clear,230,2013-01-20 00:55:00
8:14 PM,41.0,33.8,76,29.72,10.0,WSW,16.1,23.0,N/A,,Clear,240,2013-01-20 01:14:00
8:35 PM,41.0,33.8,76,29.71,10.0,WSW,15.0,-,N/A,,Clear,240,2013-01-20 01:35:00
8:55 PM,39.2,33.8,81,29.71,10.0,WSW,15.0,20.7,N/A,,Clear,240,2013-01-20 01:55:00
9:14 PM,39.2,33.8,81,29.70,10.0,SW,12.7,-,N/A,,Clear,230,2013-01-20 02:14:00
9:35 PM,41.0,33.8,76,29.70,10.0,WSW,13.8,19.6,N/A,,Scattered Clouds,240,2013-01-20 02:35:00
9:55 PM,42.8,33.8,70,29.70,10.0,WSW,18.4,23.0,N/A,,Mostly Cloudy,250,2013-01-20 02:55:00
10:14 PM,42.8,33.8,70,29.69,10.0,WSW,18.4,23.0,N/A,,Overcast,250,2013-01-20 03:14:00
10:35 PM,42.8,33.8,70,29.68,10.0,WSW,18.4,26.5,N/A,,Mostly Cloudy,250,2013-01-20 03:35:00
10:54 PM,42.8,33.8,70,29.69,10.0,WSW,16.1,24.2,N/A,,Scattered Clouds,250,2013-01-20 03:54:00
11:15 PM,42.8,33.8,70,29.69,10.0,WSW,19.6,29.9,N/A,,Overcast,250,2013-01-20 04:15:00
11:35 PM,42.8,30.2,61,29.69,10.0,West,21.9,32.2,N/A,,Mostly Cloudy,270,2013-01-20 04:35:00
11:54 PM,42.8,28.4,57,29.70,10.0,West,24.2,32.2,N/A,,Mostly Cloudy,270,2013-01-20 04:54:00